TAM3120 SBSP-SBLO

Flight info

Callsign TAM3120
Flight time 0h 49m
Altitude 34000
Route EGEVA UZ58 UMPIG
Aircraft A319/M-SDE2FGHIM1RWXYZ/LB1

Departure

Time 2026-04-26 19:55
Airport Congonhas–Deputado Freitas Nobre Airport (SBSP)

Arrival

Time 2026-04-26 20:45
Airport Governor José Richa Airport (SBLO)
Time Latitude Longitude Altitude Speed Heading
2026-04-26 19:39 -23.63047 -46.65736 2601 ft 0 kts 148°
2026-04-26 19:43 -23.63046 -46.65736 2601 ft 0 kts 148°
2026-04-26 19:43 -23.63036 -46.65743 2600 ft 2 kts 148°
2026-04-26 19:44 -23.63028 -46.65748 2600 ft 1 kts 149°
2026-04-26 19:44 -23.63018 -46.65760 2600 ft 2 kts 107°
2026-04-26 19:44 -23.63018 -46.65776 2599 ft 2 kts 69°
2026-04-26 19:44 -23.63020 -46.65783 2599 ft 0 kts 54°
2026-04-26 19:45 -23.63010 -46.65763 2599 ft 6 kts 58°
2026-04-26 19:45 -23.62991 -46.65730 2600 ft 2 kts 58°
2026-04-26 19:45 -23.62987 -46.65725 2600 ft 0 kts 58°
2026-04-26 19:48 -23.62987 -46.65724 2600 ft 0 kts 58°
2026-04-26 19:48 -23.62986 -46.65722 2600 ft 0 kts 59°
2026-04-26 19:48 -23.62982 -46.65714 2601 ft 2 kts 57°
2026-04-26 19:49 -23.62966 -46.65688 2602 ft 5 kts 58°
2026-04-26 19:49 -23.62943 -46.65648 2604 ft 6 kts 59°
2026-04-26 19:49 -23.62922 -46.65614 2604 ft 0 kts 57°
2026-04-26 19:49 -23.62922 -46.65613 2604 ft 0 kts 58°
2026-04-26 19:50 -23.62918 -46.65606 2605 ft 2 kts 59°
2026-04-26 19:50 -23.62923 -46.65577 2606 ft 7 kts 141°
2026-04-26 19:50 -23.62958 -46.65552 2607 ft 4 kts 148°
2026-04-26 19:50 -23.62977 -46.65539 2608 ft 2 kts 148°
2026-04-26 19:51 -23.63004 -46.65529 2608 ft 6 kts 165°
2026-04-26 19:51 -23.63036 -46.65521 2609 ft 3 kts 169°
2026-04-26 19:51 -23.63058 -46.65516 2609 ft 3 kts 166°
2026-04-26 19:51 -23.63085 -46.65501 2610 ft 5 kts 147°
2026-04-26 19:52 -23.63119 -46.65477 2611 ft 6 kts 148°
2026-04-26 19:52 -23.63149 -46.65456 2612 ft 4 kts 148°
2026-04-26 19:52 -23.63165 -46.65445 2613 ft 1 kts 142°
2026-04-26 19:52 -23.63184 -46.65432 2613 ft 6 kts 148°
2026-04-26 19:53 -23.63240 -46.65393 2615 ft 10 kts 147°
2026-04-26 19:53 -23.63295 -46.65355 2617 ft 7 kts 147°
2026-04-26 19:53 -23.63331 -46.65330 2618 ft 4 kts 148°
2026-04-26 19:53 -23.63352 -46.65316 2619 ft 3 kts 147°
2026-04-26 19:54 -23.63396 -46.65285 2617 ft 10 kts 148°
2026-04-26 19:54 -23.63423 -46.65216 2616 ft 11 kts 59°
2026-04-26 19:54 -23.63400 -46.65156 2615 ft 7 kts 70°
2026-04-26 19:54 -23.63374 -46.65157 2615 ft 0 kts 327°
2026-04-26 19:55 -23.63326 -46.65191 2617 ft 35 kts 327°
2026-04-26 19:55 -23.62901 -46.65485 2608 ft 108 kts 328°
2026-04-26 19:55 -23.62087 -46.66049 2697 ft 157 kts 326°
2026-04-26 19:55 -23.61179 -46.66676 3370 ft 152 kts 327°
2026-04-26 19:56 -23.60308 -46.67265 3884 ft 148 kts 328°
2026-04-26 19:56 -23.59498 -46.67966 4225 ft 154 kts 304°
2026-04-26 19:56 -23.59119 -46.69117 4477 ft 172 kts 287°
2026-04-26 19:56 -23.58808 -46.70439 4755 ft 189 kts 287°
2026-04-26 19:57 -23.58461 -46.71885 5070 ft 206 kts 286°
2026-04-26 19:57 -23.58071 -46.73462 5399 ft 224 kts 287°
2026-04-26 19:57 -23.57648 -46.75152 5757 ft 242 kts 287°
2026-04-26 19:57 -23.57337 -46.76995 6223 ft 259 kts 270°
2026-04-26 19:58 -23.57858 -46.78926 6742 ft 278 kts 242°
2026-04-26 19:58 -23.59216 -46.80459 7260 ft 285 kts 219°
2026-04-26 19:58 -23.60798 -46.81755 7489 ft 281 kts 230°
2026-04-26 19:58 -23.61950 -46.83435 7529 ft 277 kts 238°
2026-04-26 19:59 -23.63306 -46.84960 7531 ft 284 kts 219°
2026-04-26 19:59 -23.65067 -46.86004 7871 ft 295 kts 208°
2026-04-26 19:59 -23.66921 -46.86904 8769 ft 294 kts 208°
2026-04-26 19:59 -23.68765 -46.87811 9695 ft 292 kts 208°
2026-04-26 20:00 -23.70608 -46.88743 10480 ft 295 kts 209°
2026-04-26 20:00 -23.72524 -46.89733 10962 ft 309 kts 209°
2026-04-26 20:00 -23.74390 -46.90915 11516 ft 312 kts 225°
2026-04-26 20:00 -23.75688 -46.92754 12193 ft 307 kts 248°
2026-04-26 20:01 -23.76225 -46.94960 12866 ft 304 kts 269°
2026-04-26 20:01 -23.76059 -46.97242 13500 ft 306 kts 279°
2026-04-26 20:01 -23.75757 -46.99560 14130 ft 309 kts 278°
2026-04-26 20:01 -23.75462 -47.01885 14720 ft 313 kts 278°
2026-04-26 20:02 -23.75169 -47.04230 15313 ft 316 kts 278°
2026-04-26 20:02 -23.74876 -47.06599 15919 ft 318 kts 278°
2026-04-26 20:02 -23.74514 -47.08984 16488 ft 322 kts 286°
2026-04-26 20:02 -23.73920 -47.10483 16855 ft 325 kts 300°
2026-04-26 20:03 -23.71823 -47.12823 17601 ft 334 kts 325°
2026-04-26 20:03 -23.69648 -47.13786 18156 ft 343 kts 342°
2026-04-26 20:03 -23.67285 -47.14314 18731 ft 346 kts 344°
2026-04-26 20:03 -23.64941 -47.14824 19250 ft 348 kts 344°
2026-04-26 20:04 -23.62558 -47.15344 19764 ft 350 kts 343°
2026-04-26 20:04 -23.60141 -47.15872 20281 ft 352 kts 343°
2026-04-26 20:04 -23.57755 -47.16395 20776 ft 354 kts 343°
2026-04-26 20:04 -23.55323 -47.16929 21262 ft 355 kts 343°
2026-04-26 20:05 -23.52912 -47.17458 21723 ft 357 kts 343°
2026-04-26 20:05 -23.50465 -47.17999 22139 ft 359 kts 341°
2026-04-26 20:05 -23.48130 -47.18953 22432 ft 356 kts 324°
2026-04-26 20:05 -23.46258 -47.20678 22840 ft 352 kts 307°
2026-04-26 20:06 -23.45002 -47.22928 23258 ft 351 kts 290°
2026-04-26 20:06 -23.44457 -47.25489 23657 ft 354 kts 275°
2026-04-26 20:06 -23.44341 -47.28173 24102 ft 356 kts 274°
2026-04-26 20:06 -23.44224 -47.30881 24508 ft 359 kts 274°
2026-04-26 20:07 -23.44108 -47.33593 24931 ft 361 kts 274°
2026-04-26 20:07 -23.43994 -47.36298 25337 ft 363 kts 273°
2026-04-26 20:07 -23.43879 -47.39039 25770 ft 364 kts 273°
2026-04-26 20:07 -23.43765 -47.41818 26167 ft 367 kts 274°
2026-04-26 20:08 -23.43650 -47.44570 26564 ft 369 kts 273°
2026-04-26 20:08 -23.43535 -47.47361 26952 ft 371 kts 273°
2026-04-26 20:08 -23.43418 -47.50158 27304 ft 374 kts 273°
2026-04-26 20:08 -23.43301 -47.52986 27684 ft 376 kts 273°
2026-04-26 20:09 -23.43181 -47.55858 28070 ft 378 kts 273°
2026-04-26 20:09 -23.43062 -47.58711 28424 ft 381 kts 273°
2026-04-26 20:09 -23.42942 -47.61573 28801 ft 383 kts 273°
2026-04-26 20:09 -23.42820 -47.64479 29162 ft 385 kts 273°
2026-04-26 20:10 -23.42697 -47.67387 29524 ft 387 kts 274°
2026-04-26 20:10 -23.42574 -47.70315 29886 ft 389 kts 274°
2026-04-26 20:10 -23.42448 -47.73250 30233 ft 392 kts 274°
2026-04-26 20:10 -23.42321 -47.76219 30589 ft 394 kts 274°
2026-04-26 20:11 -23.42193 -47.79197 30949 ft 395 kts 274°
2026-04-26 20:11 -23.42065 -47.82158 31359 ft 396 kts 274°
2026-04-26 20:11 -23.41936 -47.85127 31837 ft 394 kts 274°
2026-04-26 20:12 -23.41678 -47.91064 32661 ft 393 kts 274°
2026-04-26 20:12 -23.41546 -47.94054 33015 ft 394 kts 274°
2026-04-26 20:12 -23.41416 -47.97011 33369 ft 396 kts 275°
2026-04-26 20:12 -23.41283 -47.99985 33707 ft 397 kts 275°
2026-04-26 20:13 -23.41148 -48.03004 33980 ft 399 kts 275°
2026-04-26 20:13 -23.40875 -48.09032 33988 ft 399 kts 275°
2026-04-26 20:14 -23.40603 -48.15033 33994 ft 399 kts 275°
2026-04-26 20:14 -23.40328 -48.21064 33994 ft 399 kts 275°
2026-04-26 20:15 -23.40049 -48.27102 33997 ft 399 kts 275°
2026-04-26 20:15 -23.39770 -48.33114 33994 ft 399 kts 275°
2026-04-26 20:16 -23.39490 -48.39096 33993 ft 399 kts 275°
2026-04-26 20:16 -23.39204 -48.45134 33992 ft 398 kts 275°
2026-04-26 20:17 -23.38920 -48.51106 33992 ft 398 kts 275°
2026-04-26 20:17 -23.38633 -48.57106 33993 ft 399 kts 275°
2026-04-26 20:18 -23.38341 -48.63134 33994 ft 399 kts 275°
2026-04-26 20:18 -23.38048 -48.69138 33992 ft 398 kts 275°
2026-04-26 20:19 -23.37752 -48.75155 33992 ft 398 kts 275°
2026-04-26 20:19 -23.37455 -48.81169 33994 ft 399 kts 275°
2026-04-26 20:20 -23.37156 -48.87138 33992 ft 398 kts 275°
2026-04-26 20:20 -23.36855 -48.93146 33989 ft 398 kts 275°
2026-04-26 20:21 -23.36550 -48.99149 33990 ft 397 kts 275°
2026-04-26 20:21 -23.36245 -49.05105 33991 ft 397 kts 275°
2026-04-26 20:22 -23.35936 -49.11129 33992 ft 398 kts 275°
2026-04-26 20:22 -23.35628 -49.17092 33983 ft 398 kts 275°
2026-04-26 20:23 -23.35308 -49.23190 33664 ft 415 kts 275°
2026-04-26 20:23 -23.35141 -49.26315 33376 ft 420 kts 275°
2026-04-26 20:23 -23.34975 -49.29474 33092 ft 420 kts 275°
2026-04-26 20:23 -23.34810 -49.32625 32821 ft 419 kts 275°
2026-04-26 20:24 -23.34642 -49.35791 32528 ft 418 kts 275°
2026-04-26 20:24 -23.34475 -49.38923 32040 ft 416 kts 275°
2026-04-26 20:24 -23.34306 -49.42066 31379 ft 414 kts 274°
2026-04-26 20:24 -23.34140 -49.45168 30663 ft 413 kts 274°
2026-04-26 20:25 -23.33972 -49.48266 29910 ft 414 kts 274°
2026-04-26 20:25 -23.33860 -49.50347 29399 ft 414 kts 274°
2026-04-26 20:25 -23.33636 -49.54470 28628 ft 408 kts 274°
2026-04-26 20:25 -23.33474 -49.57491 28118 ft 402 kts 274°
2026-04-26 20:26 -23.33312 -49.60497 27612 ft 397 kts 274°
2026-04-26 20:26 -23.33149 -49.63487 27089 ft 392 kts 274°
2026-04-26 20:26 -23.32988 -49.66405 26559 ft 388 kts 274°
2026-04-26 20:26 -23.32825 -49.69338 26030 ft 384 kts 274°
2026-04-26 20:27 -23.32667 -49.72188 25528 ft 380 kts 274°
2026-04-26 20:27 -23.32507 -49.75058 25015 ft 376 kts 274°
2026-04-26 20:27 -23.32351 -49.77857 24516 ft 372 kts 274°
2026-04-26 20:27 -23.32195 -49.80647 24003 ft 369 kts 274°
2026-04-26 20:28 -23.32039 -49.83407 23510 ft 366 kts 274°
2026-04-26 20:28 -23.31885 -49.86150 23002 ft 363 kts 274°
2026-04-26 20:28 -23.31731 -49.88885 22490 ft 360 kts 274°
2026-04-26 20:28 -23.31578 -49.91560 22023 ft 357 kts 274°
2026-04-26 20:29 -23.31426 -49.94231 21536 ft 356 kts 274°
2026-04-26 20:29 -23.31272 -49.96937 21007 ft 356 kts 274°
2026-04-26 20:29 -23.31224 -49.97793 20835 ft 356 kts 274°
2026-04-26 20:29 -23.31092 -50.00073 20386 ft 356 kts 274°
2026-04-26 20:30 -23.30939 -50.02744 19858 ft 356 kts 274°
2026-04-26 20:30 -23.30785 -50.05412 19327 ft 356 kts 274°
2026-04-26 20:30 -23.30628 -50.08111 18810 ft 355 kts 274°
2026-04-26 20:30 -23.30475 -50.10763 18302 ft 354 kts 274°
2026-04-26 20:31 -23.30320 -50.13414 17806 ft 353 kts 274°
2026-04-26 20:31 -23.30164 -50.16083 17305 ft 351 kts 274°
2026-04-26 20:31 -23.30010 -50.18722 16815 ft 350 kts 274°
2026-04-26 20:31 -23.29858 -50.21325 16314 ft 349 kts 274°
2026-04-26 20:32 -23.29703 -50.23979 15799 ft 348 kts 274°
2026-04-26 20:32 -23.29550 -50.26563 15306 ft 347 kts 274°
2026-04-26 20:32 -23.29394 -50.29177 14980 ft 340 kts 274°
2026-04-26 20:32 -23.29241 -50.31741 14397 ft 343 kts 274°
2026-04-26 20:33 -23.29087 -50.34328 13814 ft 345 kts 274°
2026-04-26 20:33 -23.28953 -50.36943 13250 ft 346 kts 271°
2026-04-26 20:33 -23.29129 -50.39529 12707 ft 348 kts 262°
2026-04-26 20:33 -23.29679 -50.42070 12131 ft 350 kts 255°
2026-04-26 20:34 -23.30394 -50.44619 11626 ft 348 kts 254°
2026-04-26 20:34 -23.31107 -50.47086 11252 ft 341 kts 254°
2026-04-26 20:34 -23.31809 -50.49514 10686 ft 330 kts 254°
2026-04-26 20:34 -23.32472 -50.51817 10241 ft 315 kts 255°
2026-04-26 20:35 -23.33104 -50.54025 10117 ft 297 kts 255°
2026-04-26 20:35 -23.33707 -50.56144 10010 ft 285 kts 255°
2026-04-26 20:35 -23.34283 -50.58166 9740 ft 278 kts 255°
2026-04-26 20:35 -23.34841 -50.60133 9320 ft 274 kts 255°
2026-04-26 20:36 -23.35407 -50.62139 8922 ft 275 kts 255°
2026-04-26 20:36 -23.35968 -50.64120 8537 ft 276 kts 255°
2026-04-26 20:36 -23.36531 -50.66114 8145 ft 277 kts 255°
2026-04-26 20:36 -23.37094 -50.68102 7759 ft 273 kts 255°
2026-04-26 20:37 -23.37646 -50.70049 7380 ft 270 kts 255°
2026-04-26 20:37 -23.38196 -50.71996 7003 ft 272 kts 255°
2026-04-26 20:37 -23.38759 -50.73988 6618 ft 273 kts 255°
2026-04-26 20:37 -23.39310 -50.75939 6232 ft 274 kts 255°
2026-04-26 20:38 -23.39875 -50.77939 5840 ft 275 kts 255°
2026-04-26 20:38 -23.40438 -50.79933 5471 ft 276 kts 255°
2026-04-26 20:38 -23.40988 -50.81876 5389 ft 265 kts 255°
2026-04-26 20:38 -23.41519 -50.83750 5324 ft 254 kts 255°
2026-04-26 20:39 -23.42018 -50.85562 5245 ft 242 kts 260°
2026-04-26 20:39 -23.42108 -50.86741 5166 ft 234 kts 279°
2026-04-26 20:39 -23.41506 -50.88919 5065 ft 220 kts 291°
2026-04-26 20:39 -23.40973 -50.90453 4933 ft 214 kts 292°
2026-04-26 20:40 -23.40450 -50.91951 4805 ft 207 kts 291°
2026-04-26 20:40 -23.39954 -50.93396 4691 ft 196 kts 291°
2026-04-26 20:40 -23.39504 -50.94722 4677 ft 179 kts 291°
2026-04-26 20:40 -23.39098 -50.95930 4642 ft 165 kts 291°
2026-04-26 20:41 -23.38700 -50.97111 4486 ft 164 kts 291°
2026-04-26 20:41 -23.38309 -50.98275 4279 ft 164 kts 291°
2026-04-26 20:41 -23.37919 -50.99435 4075 ft 164 kts 291°
2026-04-26 20:41 -23.37527 -51.00603 3871 ft 163 kts 291°
2026-04-26 20:42 -23.37144 -51.01745 3681 ft 156 kts 291°
2026-04-26 20:42 -23.36785 -51.02814 3471 ft 145 kts 291°
2026-04-26 20:42 -23.36453 -51.03804 3287 ft 139 kts 291°
2026-04-26 20:42 -23.36121 -51.04791 3124 ft 139 kts 291°
2026-04-26 20:43 -23.35786 -51.05788 2962 ft 139 kts 291°
2026-04-26 20:43 -23.35459 -51.06761 2797 ft 137 kts 291°
2026-04-26 20:43 -23.35133 -51.07731 2629 ft 136 kts 291°
2026-04-26 20:43 -23.34809 -51.08701 2471 ft 135 kts 290°
2026-04-26 20:44 -23.34489 -51.09651 2302 ft 134 kts 291°
2026-04-26 20:44 -23.34174 -51.10598 2116 ft 133 kts 291°
2026-04-26 20:44 -23.33852 -51.11551 1963 ft 132 kts 291°
2026-04-26 20:44 -23.33540 -51.12472 1870 ft 125 kts 291°
2026-04-26 20:45 -23.33295 -51.13199 1870 ft 73 kts 290°
2026-04-26 20:45 -23.33176 -51.13555 1870 ft 27 kts 290°
2026-04-26 20:45 -23.33141 -51.13658 1870 ft 8 kts 290°
2026-04-26 20:45 -23.33118 -51.13709 1870 ft 7 kts 327°
2026-04-26 20:46 -23.33073 -51.13703 1870 ft 6 kts 18°
2026-04-26 20:46 -23.33034 -51.13689 1870 ft 5 kts 20°
2026-04-26 20:46 -23.33002 -51.13676 1870 ft 4 kts 20°
2026-04-26 20:46 -23.32975 -51.13666 1870 ft 3 kts 12°
2026-04-26 20:47 -23.32952 -51.13662 1870 ft 2 kts 13°
2026-04-26 20:47 -23.32940 -51.13658 1870 ft 2 kts 17°
2026-04-26 20:47 -23.32921 -51.13651 1870 ft 1 kts 19°
2026-04-26 20:47 -23.32910 -51.13647 1870 ft 1 kts 19°
2026-04-26 20:48 -23.32905 -51.13644 1870 ft 0 kts 19°